Accueil
METAR-TAF:

METAR-TAF

Aéroports :

Makkovik, Terre-Neuve-et-Labrador, Canada

latitude: 55-05N, longitude: 059-11W, altitude: 71 m

Observation

Le bulletin a été fait il y a 10 heures et 40 minutes, à 21:00 UTC
Vent 9 kt de ouest/sud-ouest
Température -10°C
Humidité 67%
Pression 995 hPa
Visibilité: 24.1 km
Quelques nuages à une hauteur de 2000 ft

METAR: CYFT 162100Z 25009KT 15SM FEW020 M10/M15 A2938 RMK SC1 SC TR LAST STFD OBS/NEXT171000Z SLP959

Heure: 03:40 (07:40 UTC)


TAF: absent

Observations et prévisions météorologiques de plus de 4000 aéroports (messages METAR et TAF).

Les stations disponibles sont représentées par des disques jaunes et rouges sur la carte.

Passer la souris dessus pour voir le nom de la station.

Cliquer dessus pour voir les observations et prévisions météorologiques.

Pour changer de carte: cliquez sur les boutons verts avec une croix noire pour zoomer, sur le bouton vert avec un tiret pour effectuer un zoom arrière, ou sur les flèches vertes pour les cartes adjacentes.


METAR-TAF: